EWG6LT EDDK-LDZA

Flight info

Callsign EWG6LT
Flight time 1h 22m
Altitude 37000
Route KUMIK1R KUMIK L603 TESGA DCT ESATI DCT OSBIT DCT TENLO DCT LAMSI DCT LULUD
Aircraft A319/M-SDE3FGHIRWY/LB1

Departure

Time 2026-04-25 19:24
Airport Cologne Bonn Airport (EDDK)

Arrival

Time 2026-04-25 20:46
Airport Zagreb Franjo Tuđman International Airport (LDZA)
Time Latitude Longitude Altitude Speed Heading
2026-04-25 18:30 50.87638 7.12293 232 ft 0 kts 52°
2026-04-25 19:11 50.87634 7.12285 232 ft 3 kts 52°
2026-04-25 19:11 50.87620 7.12258 233 ft 1 kts 52°
2026-04-25 19:11 50.87609 7.12231 232 ft 3 kts 68°
2026-04-25 19:12 50.87603 7.12196 232 ft 3 kts 92°
2026-04-25 19:12 50.87607 7.12164 232 ft 1 kts 117°
2026-04-25 19:12 50.87607 7.12163 232 ft 0 kts 117°
2026-04-25 19:15 50.87604 7.12173 233 ft 3 kts 117°
2026-04-25 19:15 50.87583 7.12238 234 ft 9 kts 118°
2026-04-25 19:15 50.87548 7.12341 233 ft 12 kts 118°
2026-04-25 19:15 50.87572 7.12451 233 ft 13 kts 19°
2026-04-25 19:16 50.87667 7.12499 232 ft 16 kts 18°
2026-04-25 19:16 50.87761 7.12592 232 ft 18 kts 66°
2026-04-25 19:16 50.87722 7.12766 232 ft 19 kts 137°
2026-04-25 19:16 50.87617 7.12918 233 ft 21 kts 137°
2026-04-25 19:17 50.87502 7.13085 232 ft 23 kts 137°
2026-04-25 19:17 50.87377 7.13266 232 ft 25 kts 137°
2026-04-25 19:17 50.87243 7.13460 234 ft 26 kts 137°
2026-04-25 19:17 50.87108 7.13656 240 ft 26 kts 137°
2026-04-25 19:18 50.86977 7.13845 245 ft 25 kts 137°
2026-04-25 19:18 50.86857 7.14018 255 ft 22 kts 137°
2026-04-25 19:18 50.86723 7.14156 257 ft 23 kts 147°
2026-04-25 19:18 50.86605 7.14323 261 ft 23 kts 137°
2026-04-25 19:19 50.86486 7.14496 267 ft 22 kts 137°
2026-04-25 19:19 50.86374 7.14658 274 ft 21 kts 137°
2026-04-25 19:19 50.86269 7.14810 280 ft 20 kts 137°
2026-04-25 19:19 50.86236 7.14857 281 ft 20 kts 137°
2026-04-25 19:20 50.86081 7.15083 291 ft 14 kts 137°
2026-04-25 19:20 50.86044 7.15222 290 ft 14 kts 86°
2026-04-25 19:20 50.86092 7.15342 292 ft 11 kts 30°
2026-04-25 19:20 50.86139 7.15360 290 ft 8 kts
2026-04-25 19:21 50.86191 7.15346 293 ft 0 kts 348°
2026-04-25 19:21 50.86225 7.15334 288 ft 8 kts 348°
2026-04-25 19:22 50.86289 7.15312 289 ft 12 kts 348°
2026-04-25 19:22 50.86380 7.15316 285 ft 10 kts
2026-04-25 19:22 50.86399 7.15297 286 ft 0 kts 317°
2026-04-25 19:23 50.86428 7.15254 283 ft 24 kts 317°
2026-04-25 19:23 50.87592 7.13565 399 ft 145 kts 317°
2026-04-25 19:23 50.88092 7.12844 825 ft 143 kts 318°
2026-04-25 19:24 50.88835 7.11787 1431 ft 145 kts 319°
2026-04-25 19:24 50.89831 7.11200 1613 ft 173 kts
2026-04-25 19:24 50.92377 7.12846 2521 ft 209 kts 22°
2026-04-25 19:25 50.94364 7.16420 3897 ft 246 kts 60°
2026-04-25 19:25 50.95154 7.18958 4578 ft 262 kts 60°
2026-04-25 19:25 50.95962 7.21575 5527 ft 267 kts 60°
2026-04-25 19:26 50.96787 7.24241 6482 ft 271 kts 60°
2026-04-25 19:26 50.97631 7.26949 7363 ft 275 kts 60°
2026-04-25 19:26 50.98490 7.29689 8220 ft 280 kts 59°
2026-04-25 19:26 50.99365 7.32469 9076 ft 284 kts 60°
2026-04-25 19:27 51.00260 7.35303 9935 ft 289 kts 60°
2026-04-25 19:27 51.00854 7.37209 10457 ft 293 kts 62°
2026-04-25 19:27 51.01598 7.41592 10958 ft 327 kts 83°
2026-04-25 19:27 51.01458 7.45243 11402 ft 344 kts 100°
2026-04-25 19:28 51.00774 7.48938 12074 ft 351 kts 106°
2026-04-25 19:28 51.00034 7.52661 12789 ft 356 kts 106°
2026-04-25 19:28 50.99292 7.56442 13480 ft 361 kts 105°
2026-04-25 19:28 50.98542 7.60279 14141 ft 367 kts 105°
2026-04-25 19:29 50.97781 7.64169 14767 ft 371 kts 105°
2026-04-25 19:29 50.97008 7.68104 15434 ft 374 kts 105°
2026-04-25 19:29 50.96228 7.72062 16074 ft 378 kts 105°
2026-04-25 19:29 50.95439 7.76053 16720 ft 381 kts 105°
2026-04-25 19:30 50.94619 7.80075 17362 ft 385 kts 109°
2026-04-25 19:30 50.93427 7.83901 17984 ft 391 kts 123°
2026-04-25 19:30 50.91676 7.87150 18586 ft 395 kts 134°
2026-04-25 19:30 50.89737 7.90269 19137 ft 398 kts 135°
2026-04-25 19:31 50.87774 7.93396 19681 ft 401 kts 135°
2026-04-25 19:31 50.85788 7.96533 20227 ft 405 kts 135°
2026-04-25 19:31 50.83786 7.99687 20776 ft 409 kts 135°
2026-04-25 19:31 50.81761 8.02875 21291 ft 413 kts 135°
2026-04-25 19:32 50.79716 8.06110 21811 ft 417 kts 135°
2026-04-25 19:32 50.77668 8.09387 22335 ft 420 kts 134°
2026-04-25 19:32 50.75610 8.12699 22852 ft 424 kts 134°
2026-04-25 19:32 50.74237 8.14908 23200 ft 426 kts 134°
2026-04-25 19:33 50.71435 8.19403 23867 ft 431 kts 134°
2026-04-25 19:33 50.69349 8.22738 24282 ft 434 kts 134°
2026-04-25 19:33 50.67221 8.26131 24709 ft 436 kts 135°
2026-04-25 19:33 50.65077 8.29538 25127 ft 439 kts 135°
2026-04-25 19:34 50.62917 8.32962 25542 ft 442 kts 135°
2026-04-25 19:34 50.60743 8.36398 25961 ft 444 kts 135°
2026-04-25 19:34 50.58551 8.39852 26367 ft 447 kts 135°
2026-04-25 19:34 50.56343 8.43327 26765 ft 450 kts 135°
2026-04-25 19:35 50.54122 8.46813 27153 ft 452 kts 135°
2026-04-25 19:35 50.51885 8.50316 27551 ft 455 kts 135°
2026-04-25 19:35 50.49629 8.53847 27938 ft 458 kts 135°
2026-04-25 19:35 50.47362 8.57386 28321 ft 461 kts 135°
2026-04-25 19:36 50.45080 8.60942 28708 ft 464 kts 135°
2026-04-25 19:36 50.42773 8.64521 29091 ft 467 kts 135°
2026-04-25 19:36 50.40470 8.68035 29466 ft 470 kts 136°
2026-04-25 19:36 50.38111 8.71587 29834 ft 472 kts 136°
2026-04-25 19:37 50.35770 8.75228 30186 ft 475 kts 130°
2026-04-25 19:37 50.33926 8.79514 30486 ft 476 kts 117°
2026-04-25 19:37 50.32356 8.84093 30802 ft 478 kts 116°
2026-04-25 19:37 50.30787 8.88693 31095 ft 480 kts 116°
2026-04-25 19:38 50.29216 8.93306 31448 ft 480 kts 117°
2026-04-25 19:38 50.27659 8.97881 31782 ft 481 kts 117°
2026-04-25 19:38 50.26081 9.02506 32223 ft 480 kts 117°
2026-04-25 19:38 50.24510 9.07093 32672 ft 478 kts 117°
2026-04-25 19:39 50.22940 9.11661 33121 ft 477 kts 117°
2026-04-25 19:39 50.21374 9.16200 33567 ft 475 kts 117°
2026-04-25 19:39 50.19803 9.20745 34036 ft 474 kts 117°
2026-04-25 19:39 50.18237 9.25268 34394 ft 474 kts 117°
2026-04-25 19:40 50.16668 9.29790 34724 ft 474 kts 117°
2026-04-25 19:40 50.15083 9.34310 35055 ft 474 kts 118°
2026-04-25 19:40 50.13482 9.38814 35374 ft 474 kts 118°
2026-04-25 19:40 50.11871 9.43296 35694 ft 474 kts 118°
2026-04-25 19:41 50.10255 9.47769 36000 ft 474 kts 118°
2026-04-25 19:41 50.08638 9.52244 36306 ft 474 kts 118°
2026-04-25 19:41 50.07042 9.56666 36596 ft 474 kts 118°
2026-04-25 19:41 50.06499 9.58172 36706 ft 473 kts 118°
2026-04-25 19:42 50.03817 9.65626 37105 ft 475 kts 118°
2026-04-25 19:42 50.02196 9.70115 37135 ft 475 kts 118°
2026-04-25 19:42 49.98966 9.79060 37129 ft 473 kts 118°
2026-04-25 19:43 49.95754 9.87991 37119 ft 473 kts 118°
2026-04-25 19:43 49.92550 9.96821 37120 ft 472 kts 119°
2026-04-25 19:44 49.89303 10.05691 37135 ft 473 kts 119°
2026-04-25 19:44 49.86063 10.14577 37119 ft 474 kts 118°
2026-04-25 19:45 49.82813 10.23474 37114 ft 474 kts 119°
2026-04-25 19:45 49.79543 10.32356 37113 ft 475 kts 119°
2026-04-25 19:46 49.76261 10.41243 37118 ft 475 kts 119°
2026-04-25 19:46 49.72971 10.50121 37118 ft 475 kts 119°
2026-04-25 19:47 49.69698 10.58929 37107 ft 475 kts 119°
2026-04-25 19:47 49.66392 10.67797 37115 ft 475 kts 119°
2026-04-25 19:48 49.63095 10.76623 37122 ft 475 kts 119°
2026-04-25 19:48 49.59788 10.85436 37132 ft 474 kts 119°
2026-04-25 19:49 49.57592 10.91272 37125 ft 475 kts 119°
2026-04-25 19:49 49.53159 11.02984 37117 ft 475 kts 119°
2026-04-25 19:50 49.48508 11.16448 37115 ft 474 kts 114°
2026-04-25 19:51 49.45641 11.25588 37116 ft 475 kts 114°
2026-04-25 19:51 49.42709 11.34686 37101 ft 475 kts 115°
2026-04-25 19:52 49.39696 11.43742 37084 ft 476 kts 116°
2026-04-25 19:52 49.36665 11.52760 37098 ft 475 kts 116°
2026-04-25 19:53 49.33660 11.61719 37106 ft 475 kts 116°
2026-04-25 19:53 49.30643 11.70723 37111 ft 475 kts 116°
2026-04-25 19:54 49.27621 11.79731 37110 ft 475 kts 116°
2026-04-25 19:54 49.24598 11.88729 37106 ft 475 kts 116°
2026-04-25 19:55 49.22073 11.96186 37092 ft 475 kts 116°
2026-04-25 19:55 49.18529 12.06597 37102 ft 475 kts 116°
2026-04-25 19:56 49.15473 12.15554 37085 ft 475 kts 116°
2026-04-25 19:56 49.12419 12.24503 37085 ft 475 kts 116°
2026-04-25 19:57 49.09360 12.33446 37076 ft 475 kts 116°
2026-04-25 19:57 49.06277 12.42378 37067 ft 475 kts 116°
2026-04-25 19:58 49.03191 12.51287 37090 ft 474 kts 117°
2026-04-25 19:58 49.00106 12.60162 37082 ft 474 kts 117°
2026-04-25 19:59 48.97036 12.68971 37077 ft 473 kts 117°
2026-04-25 19:59 48.93947 12.77843 37076 ft 473 kts 117°
2026-04-25 20:00 48.90853 12.86683 37073 ft 473 kts 117°
2026-04-25 20:00 48.87768 12.95441 37066 ft 473 kts 117°
2026-04-25 20:01 48.83095 13.08654 37063 ft 473 kts 117°
2026-04-25 20:01 48.79857 13.17338 37061 ft 473 kts 127°
2026-04-25 20:02 48.77590 13.20932 37069 ft 471 kts 143°
2026-04-25 20:02 48.74850 13.23651 37050 ft 469 kts 151°
2026-04-25 20:02 48.69232 13.28687 37055 ft 469 kts 151°
2026-04-25 20:03 48.63636 13.33668 37057 ft 469 kts 151°
2026-04-25 20:03 48.58001 13.38694 37056 ft 469 kts 151°
2026-04-25 20:04 48.52372 13.43706 36924 ft 470 kts 151°
2026-04-25 20:04 48.49556 13.46208 36646 ft 469 kts 151°
2026-04-25 20:04 48.46738 13.48710 36386 ft 469 kts 150°
2026-04-25 20:05 48.44121 13.51645 36131 ft 469 kts 137°
2026-04-25 20:05 48.41660 13.54864 35870 ft 468 kts 144°
2026-04-25 20:05 48.38927 13.57520 35622 ft 468 kts 152°
2026-04-25 20:05 48.36038 13.59762 35377 ft 467 kts 156°
2026-04-25 20:06 48.33098 13.61862 35137 ft 464 kts 156°
2026-04-25 20:06 48.30269 13.63999 35035 ft 458 kts 153°
2026-04-25 20:06 48.24744 13.68774 35062 ft 457 kts 149°
2026-04-25 20:07 48.19313 13.73746 35071 ft 456 kts 149°
2026-04-25 20:07 48.13844 13.78608 35070 ft 456 kts 150°
2026-04-25 20:08 48.08394 13.83323 35065 ft 454 kts 151°
2026-04-25 20:08 48.02907 13.88040 35070 ft 454 kts 151°
2026-04-25 20:09 47.97424 13.92763 35067 ft 454 kts 150°
2026-04-25 20:09 47.91981 13.97456 35067 ft 454 kts 150°
2026-04-25 20:10 47.86507 14.02174 35070 ft 454 kts 150°
2026-04-25 20:10 47.81943 14.06088 35079 ft 455 kts 151°
2026-04-25 20:11 47.76459 14.10777 35073 ft 453 kts 151°
2026-04-25 20:11 47.70988 14.15443 35069 ft 452 kts 151°
2026-04-25 20:12 47.65526 14.20101 35074 ft 452 kts 151°
2026-04-25 20:12 47.60980 14.23967 35069 ft 452 kts 151°
2026-04-25 20:13 47.54595 14.29377 35068 ft 452 kts 151°
2026-04-25 20:13 47.49143 14.33978 35070 ft 449 kts 151°
2026-04-25 20:14 47.43748 14.38527 35065 ft 448 kts 151°
2026-04-25 20:14 47.38335 14.43080 34743 ft 446 kts 151°
2026-04-25 20:15 47.35637 14.45343 34470 ft 444 kts 151°
2026-04-25 20:15 47.32957 14.47592 34209 ft 442 kts 151°
2026-04-25 20:15 47.30284 14.49832 33939 ft 440 kts 151°
2026-04-25 20:15 47.27658 14.52032 33625 ft 438 kts 152°
2026-04-25 20:16 47.25017 14.54240 33321 ft 435 kts 152°
2026-04-25 20:16 47.22389 14.56436 33037 ft 433 kts 152°
2026-04-25 20:16 47.19776 14.58618 32747 ft 431 kts 152°
2026-04-25 20:16 47.17176 14.60783 32460 ft 427 kts 154°
2026-04-25 20:17 47.14587 14.62933 32175 ft 424 kts 154°
2026-04-25 20:17 47.12014 14.65067 31890 ft 422 kts 154°
2026-04-25 20:17 47.09468 14.67180 31592 ft 419 kts 154°
2026-04-25 20:17 47.06968 14.69250 31331 ft 417 kts 154°
2026-04-25 20:18 47.04449 14.71335 31077 ft 414 kts 154°
2026-04-25 20:18 47.01946 14.73406 31020 ft 411 kts 154°
2026-04-25 20:18 46.96954 14.77529 31027 ft 411 kts 154°
2026-04-25 20:19 46.91966 14.81633 31025 ft 411 kts 155°
2026-04-25 20:19 46.86971 14.85743 30986 ft 412 kts 155°
2026-04-25 20:20 46.84466 14.87803 30678 ft 411 kts 155°
2026-04-25 20:20 46.82014 14.89821 30376 ft 409 kts 156°
2026-04-25 20:20 46.79543 14.91849 30105 ft 405 kts 156°
2026-04-25 20:20 46.77101 14.93847 29752 ft 401 kts 156°
2026-04-25 20:21 46.74669 14.95831 29351 ft 398 kts 156°
2026-04-25 20:21 46.72261 14.97795 28956 ft 395 kts 156°
2026-04-25 20:21 46.69867 14.99746 28568 ft 393 kts 156°
2026-04-25 20:21 46.67486 15.01686 28194 ft 390 kts 155°
2026-04-25 20:22 46.65129 15.03607 27818 ft 387 kts 155°
2026-04-25 20:22 46.63577 15.04872 27568 ft 385 kts 155°
2026-04-25 20:22 46.60464 15.07407 27057 ft 381 kts 155°
2026-04-25 20:22 46.58158 15.09281 26665 ft 378 kts 155°
2026-04-25 20:23 46.55898 15.11120 26286 ft 375 kts 155°
2026-04-25 20:23 46.53625 15.12964 25911 ft 372 kts 155°
2026-04-25 20:23 46.51370 15.14787 25516 ft 370 kts 155°
2026-04-25 20:23 46.49120 15.16601 25116 ft 368 kts 155°
2026-04-25 20:24 46.46889 15.18401 24722 ft 367 kts 155°
2026-04-25 20:24 46.44657 15.20201 24309 ft 367 kts 155°
2026-04-25 20:24 46.42423 15.21999 23901 ft 366 kts 154°
2026-04-25 20:24 46.40231 15.23763 23481 ft 366 kts 154°
2026-04-25 20:25 46.38005 15.25557 23028 ft 364 kts 154°
2026-04-25 20:25 46.35801 15.27333 22613 ft 361 kts 154°
2026-04-25 20:25 46.33615 15.29093 22208 ft 358 kts 154°
2026-04-25 20:25 46.31440 15.30843 21800 ft 356 kts 154°
2026-04-25 20:26 46.29281 15.32571 21397 ft 354 kts 154°
2026-04-25 20:26 46.27125 15.34293 20992 ft 352 kts 154°
2026-04-25 20:26 46.25012 15.35981 20593 ft 350 kts 154°
2026-04-25 20:26 46.22881 15.37686 20185 ft 349 kts 154°
2026-04-25 20:27 46.20758 15.39384 19786 ft 348 kts 154°
2026-04-25 20:27 46.18638 15.41079 19382 ft 347 kts 154°
2026-04-25 20:27 46.16522 15.42769 18983 ft 346 kts 154°
2026-04-25 20:27 46.14411 15.44453 18584 ft 346 kts 154°
2026-04-25 20:28 46.12335 15.46105 18158 ft 345 kts 154°
2026-04-25 20:28 46.10239 15.47770 17749 ft 343 kts 153°
2026-04-25 20:28 46.08154 15.49428 17353 ft 340 kts 153°
2026-04-25 20:28 46.06085 15.51073 16960 ft 338 kts 153°
2026-04-25 20:29 46.04058 15.52684 16578 ft 335 kts 153°
2026-04-25 20:29 46.02016 15.54305 16191 ft 333 kts 153°
2026-04-25 20:29 45.99993 15.55907 15803 ft 332 kts 153°
2026-04-25 20:29 45.97984 15.57540 15423 ft 331 kts 148°
2026-04-25 20:30 45.96355 15.59839 15044 ft 330 kts 123°
2026-04-25 20:30 45.95272 15.62747 14678 ft 329 kts 115°
2026-04-25 20:30 45.94289 15.65707 14294 ft 328 kts 115°
2026-04-25 20:30 45.93315 15.68661 13918 ft 327 kts 115°
2026-04-25 20:31 45.92344 15.71604 13502 ft 325 kts 115°
2026-04-25 20:31 45.91374 15.74534 13078 ft 324 kts 115°
2026-04-25 20:31 45.90419 15.77410 12665 ft 323 kts 115°
2026-04-25 20:31 45.89451 15.80310 12255 ft 321 kts 115°
2026-04-25 20:32 45.88489 15.83188 11819 ft 318 kts 115°
2026-04-25 20:32 45.87532 15.86029 11342 ft 315 kts 115°
2026-04-25 20:32 45.86576 15.88840 10867 ft 312 kts 115°
2026-04-25 20:32 45.85622 15.91625 10412 ft 309 kts 115°
2026-04-25 20:33 45.84676 15.94374 10062 ft 302 kts 115°
2026-04-25 20:33 45.83742 15.96999 9985 ft 289 kts 123°
2026-04-25 20:33 45.82363 15.98908 10002 ft 273 kts 151°
2026-04-25 20:33 45.81208 15.99541 10006 ft 265 kts 171°
2026-04-25 20:34 45.78847 15.99063 10010 ft 258 kts 211°
2026-04-25 20:34 45.77505 15.97382 9935 ft 258 kts 232°
2026-04-25 20:34 45.76410 15.95371 9509 ft 259 kts 234°
2026-04-25 20:34 45.75338 15.93294 9089 ft 259 kts 235°
2026-04-25 20:35 45.74277 15.91216 8686 ft 258 kts 235°
2026-04-25 20:35 45.73217 15.89128 8275 ft 258 kts 235°
2026-04-25 20:35 45.72179 15.87070 7882 ft 257 kts 235°
2026-04-25 20:35 45.71140 15.85003 7491 ft 256 kts 235°
2026-04-25 20:36 45.70106 15.82940 7120 ft 254 kts 235°
2026-04-25 20:36 45.69086 15.80898 6757 ft 252 kts 235°
2026-04-25 20:36 45.68074 15.78861 6397 ft 250 kts 235°
2026-04-25 20:36 45.67075 15.76855 6056 ft 245 kts 235°
2026-04-25 20:37 45.66093 15.74879 5733 ft 241 kts 235°
2026-04-25 20:37 45.65129 15.72945 5408 ft 237 kts 235°
2026-04-25 20:37 45.64193 15.71062 5102 ft 233 kts 235°
2026-04-25 20:37 45.63279 15.69217 5001 ft 220 kts 235°
2026-04-25 20:38 45.62401 15.67460 5006 ft 213 kts 233°
2026-04-25 20:38 45.61249 15.66208 5008 ft 214 kts 200°
2026-04-25 20:38 45.59770 15.66098 5011 ft 216 kts 171°
2026-04-25 20:38 45.58300 15.66606 5013 ft 217 kts 166°
2026-04-25 20:39 45.56847 15.67221 5008 ft 218 kts 159°
2026-04-25 20:39 45.55666 15.68560 4950 ft 221 kts 124°
2026-04-25 20:39 45.55206 15.70602 4807 ft 221 kts 93°
2026-04-25 20:39 45.55223 15.72092 4692 ft 223 kts 87°
2026-04-25 20:40 45.55383 15.74964 4490 ft 211 kts 85°
2026-04-25 20:40 45.55508 15.77005 4301 ft 203 kts 84°
2026-04-25 20:40 45.55922 15.78900 4129 ft 199 kts 59°
2026-04-25 20:40 45.56781 15.80392 4041 ft 197 kts 45°
2026-04-25 20:41 45.57722 15.81809 4008 ft 196 kts 45°
2026-04-25 20:41 45.58664 15.83227 4009 ft 197 kts 45°
2026-04-25 20:41 45.59611 15.84654 4009 ft 197 kts 45°
2026-04-25 20:41 45.60552 15.86073 4009 ft 197 kts 45°
2026-04-25 20:42 45.61500 15.87509 3806 ft 199 kts 45°
2026-04-25 20:42 45.62457 15.88955 3462 ft 199 kts 45°
2026-04-25 20:42 45.63397 15.90371 3126 ft 198 kts 45°
2026-04-25 20:42 45.64330 15.91785 2863 ft 194 kts 44°
2026-04-25 20:43 45.65261 15.93189 2598 ft 193 kts 44°
2026-04-25 20:43 45.66180 15.94575 2346 ft 191 kts 44°
2026-04-25 20:43 45.67081 15.95938 2100 ft 183 kts 44°
2026-04-25 20:43 45.67897 15.97182 1874 ft 159 kts 44°
2026-04-25 20:44 45.68613 15.98274 1609 ft 146 kts 43°
2026-04-25 20:44 45.69295 15.99301 1403 ft 139 kts 43°
2026-04-25 20:44 45.69957 16.00293 1227 ft 136 kts 44°
2026-04-25 20:44 45.70600 16.01279 1091 ft 134 kts 45°
2026-04-25 20:45 45.71023 16.01919 1019 ft 133 kts 45°
2026-04-25 20:45 45.71858 16.03180 785 ft 130 kts 46°
2026-04-25 20:45 45.72475 16.04117 602 ft 128 kts 46°
2026-04-25 20:45 45.73086 16.05040 427 ft 127 kts 47°
2026-04-25 20:46 45.73665 16.05924 361 ft 109 kts 46°
2026-04-25 20:46 45.74077 16.06549 366 ft 73 kts 46°
2026-04-25 20:46 45.74428 16.07082 358 ft 74 kts 47°
2026-04-25 20:46 45.74655 16.07427 360 ft 23 kts 46°
2026-04-25 20:47 45.74659 16.07538 363 ft 14 kts 134°
2026-04-25 20:47 45.74602 16.07614 359 ft 4 kts 136°
2026-04-25 20:47 45.74577 16.07648 364 ft 7 kts 137°
2026-04-25 20:47 45.74535 16.07704 359 ft 10 kts 137°
2026-04-25 20:48 45.74476 16.07783 363 ft 13 kts 137°
2026-04-25 20:48 45.74407 16.07876 361 ft 13 kts 137°
2026-04-25 20:48 45.74341 16.07895 359 ft 11 kts 207°
2026-04-25 20:48 45.74284 16.07936 358 ft 9 kts 137°
2026-04-25 20:49 45.74265 16.07962 359 ft 1 kts 137°
2026-04-25 20:49 45.74264 16.07963 359 ft 0 kts 137°